Regional Weather Roundup
Issued by NWS

Home | Current Version | Previous Version | Graphics & Text | Print | Product List | Glossary On
Versions: 1 2 3 4 5 6 7 8 9 10 11 12 13 14 15 16 17 18 19 20 21 22 23 24 25 26 27 28 29 30 31 32 33 34 35 36 37 38 39 40 41 42 43 44 45 46 47 48 49 50
000
ASUS43 KBIS 240310
RWRND

NORTH DAKOTA REGIONAL WEATHER ROUNDUP
NATIONAL WEATHER SERVICE BISMARCK ND
1000 PM CDT SAT SEP 23 2017

NOTE: "FAIR" INDICATES FEW OR NO CLOUDS BELOW 12,000 FEET WITH NO
SIGNIFICANT WEATHER AND/OR OBSTRUCTIONS TO VISIBILITY.


NDZ001>003-009>011-017-240400-
NORTHWEST NORTH DAKOTA

CITY           SKY/WX    TMP DP  RH WIND       PRES   REMARKS
WILLISTON      LGT RAIN  47  44  90 N5        30.14F
MINOT          LGT RAIN  49  46  90 NW7       30.08F
MINOT AFB      LGT RAIN  47  45  91 N12       30.06F
$$

NDZ018>021-031>035-040>046-240400-
SOUTHWEST NORTH DAKOTA

CITY           SKY/WX    TMP DP  RH WIND       PRES   REMARKS
BISMARCK       CLOUDY    50  47  89 N13       30.05R
DICKINSON      LGT RAIN  45  44  97 N8        30.06S FOG
GARRISON         N/A     47  45  93 N3        30.08S
HETTINGER ARPT RAIN      44  42  93 N14       30.06F FOG
$$

NDZ004>008-012>016-024-026-027-054-240400-
NORTHEAST NORTH DAKOTA

CITY           SKY/WX    TMP DP  RH WIND       PRES   REMARKS
GRAND FORKS    LGT RAIN  57  52  83 N12       30.02F
GRND FRKS AFB  CLOUDY    54  50  87 NE15      30.02F
DEVILS LAKE    RAIN      50  46  86 N12       30.07R
$$

NDZ022-023-025-028>030-036>039-047>053-240400-
SOUTHEAST NORTH DAKOTA

CITY           SKY/WX    TMP DP  RH WIND       PRES   REMARKS
FARGO          CLOUDY    55  54  96 NE8       29.97F
JAMESTOWN      LGT RAIN  52  51  97 NE12      29.99F
$$




USA.gov is the U.S. government's official web portal to all federal, state and local government web resources and services.